Weather History for KCAE - January, 2014

Change the Weather History Date:

Friday, January 17, 2014

  Actual Average Record
Temperature  
Mean Temperature 44 °F 45 °F  
Max Temperature 58 °F 56 °F 79 °F (1974)
Min Temperature 30 °F 34 °F 9 °F (1977)
Degree Days  
Heating Degree Days 21 20  
Month to date heating degree days 387 353  
Since 1 July heating degree days 1259 1363  
Cooling Degree Days 0 0  
Month to date cooling degree days 0 0  
Year to date cooling degree days 0 0  
Moisture  
Dew Point 25 °F    
Average Humidity 49    
Maximum Humidity 69    
Minimum Humidity 28    
Precipitation  
Precipitation 0.00 in 0.11 in 1.39 in (1896)
Month to date precipitation 3.18 1.93  
Year to date precipitation 3.18 1.93  
Sea Level Pressure  
Sea Level Pressure 29.99 in    
Wind  
Wind Speed 8 mph (WSW)    
Max Wind Speed 23 mph    
Max Gust Speed 31 mph    
Visibility 10 miles    
Events      
T = Trace of Precipitation, MM = Missing Value Source: NWS Daily Summary

Daily Weather History Graph

Daily Weather History Graph

Search for Another Location

Airport or City:

Trip Planner

Search our weather history database for the weather conditions in past years. The results will help you decide how hot, cold, wet, or windy it might be!

Date:

Astronomy

Jan. 17, 2014 Rise Set
Actual Time 7:29 AM EST 5:40 PM EST
Civil Twilight 7:02 AM EST 6:07 PM EST
Nautical Twilight 6:31 AM EST 6:38 PM EST
Astronomical Twilight 6:01 AM EST 7:08 PM EST
Moon 7:18 PM EST (1/17) 8:02 AM EST (1/17)
Length of Visible Light 11h 05m
Length of Day
10h 11m
Full, 98% of the Moon is Illuminated
Jan 17
Full
Jan 24
Last Quarter
Jan 30
New
Feb 6
First Quarter
Feb 14
Full

Hourly Weather History & Observations

Time (EST) Temp. Windchill Dew Point Humidity Pressure Visibility Wind Dir Wind Speed Gust Speed Precip Events Conditions
12:56 AM 33.1 °F 27.7 °F 19.9 °F 59% 30.07 in 10.0 mi WSW 5.8 mph - N/A   Clear
1:56 AM 32.0 °F 26.4 °F 19.9 °F 61% 30.06 in 10.0 mi WSW 5.8 mph - N/A   Clear
2:56 AM 34.0 °F - 19.0 °F 54% 30.05 in 10.0 mi Calm Calm - N/A   Clear
3:56 AM 30.9 °F 27.5 °F 21.9 °F 69% 30.05 in 10.0 mi West 3.5 mph - N/A   Clear
4:56 AM 33.1 °F - 19.0 °F 56% 30.04 in 10.0 mi Calm Calm - N/A   Clear
5:56 AM 32.0 °F - 19.9 °F 61% 30.02 in 10.0 mi Calm Calm - N/A   Clear
6:56 AM 30.9 °F 27.5 °F 19.9 °F 64% 30.04 in 10.0 mi WNW 3.5 mph - N/A   Clear
7:56 AM 33.1 °F 28.7 °F 21.9 °F 64% 30.04 in 10.0 mi WSW 4.6 mph - N/A   Clear
8:56 AM 39.0 °F 32.8 °F 24.1 °F 55% 30.05 in 10.0 mi WSW 9.2 mph - N/A   Partly Cloudy
9:56 AM 45.0 °F 40.1 °F 28.0 °F 52% 30.06 in 10.0 mi WSW 9.2 mph - N/A   Partly Cloudy
10:56 AM 48.0 °F - 28.0 °F 46% 30.04 in 10.0 mi WSW 10.4 mph - N/A   Partly Cloudy
11:56 AM 51.1 °F - 30.0 °F 44% 30.01 in 10.0 mi SSW 4.6 mph - N/A   Partly Cloudy
12:56 PM 54.0 °F - 30.9 °F 41% 29.96 in 10.0 mi SW 6.9 mph - N/A   Mostly Cloudy
1:56 PM 57.0 °F - 32.0 °F 39% 29.93 in 10.0 mi SW 8.1 mph 17.3 mph N/A   Mostly Cloudy
2:56 PM 57.0 °F - 25.0 °F 29% 29.91 in 10.0 mi SW 15.0 mph 27.6 mph N/A   Mostly Cloudy
3:56 PM 57.9 °F - 28.9 °F 33% 29.90 in 10.0 mi SW 16.1 mph 19.6 mph N/A   Mostly Cloudy
4:56 PM 55.9 °F - 28.9 °F 36% 29.89 in 10.0 mi SW 9.2 mph 18.4 mph N/A   Mostly Cloudy
5:56 PM 53.1 °F - 32.0 °F 45% 29.89 in 10.0 mi SW 6.9 mph - N/A   Scattered Clouds
6:56 PM 51.1 °F - 32.0 °F 48% 29.90 in 10.0 mi SW 4.6 mph - N/A   Scattered Clouds
7:56 PM 46.9 °F - 34.0 °F 61% 29.91 in 10.0 mi West 6.9 mph - N/A   Scattered Clouds
8:56 PM 50.0 °F - 25.0 °F 38% 29.93 in 10.0 mi West 12.7 mph - N/A   Mostly Cloudy
9:56 PM 50.0 °F - 19.0 °F 29% 29.95 in 10.0 mi WNW 19.6 mph 28.8 mph N/A   Mostly Cloudy
10:56 PM 46.0 °F 39.6 °F 19.0 °F 34% 29.97 in 10.0 mi WNW 15.0 mph 23.0 mph N/A   Scattered Clouds
11:56 PM 41.0 °F 34.3 °F 19.0 °F 41% 29.97 in 10.0 mi West 11.5 mph - N/A   Partly Cloudy